Location: Camp at the Woods
(43.2055°N, 93.0905°W)
Time: 07:37:03
(UTC+00:00)

Cosmos 1076 Rocket - Visible Passes

Search period start: 21 May 2024 00:00
Search period end: 31 May 2024 00:00
Orbit: 584 x 609 km, 82.5° (Epoch: 20 May)

Date Brightness Start Highest point End Pass type
(mag) Time Alt. Az. Time Alt. Az. Time Alt. Az.
21 May 5.1 02:16:59 10° NNW 02:20:52 36° W 02:24:45 10° SSW visible
22 May 5.8 02:27:42 10° NW 02:31:04 23° W 02:34:27 10° SW visible
23 May 6.3 02:38:45 10° NW 02:41:14 15° W 02:43:42 10° WSW visible
